PTR2121 CYTZ-KEWR

Flight info

Callsign PTR2121
Flight time 0h 57m
Altitude 23000
Route TEVAD2 AHPAH Q140 KODEY DCT HNK FLOSI4
Aircraft DH8D/M-SDE2E3FGRY/H

Departure

Time 2026-05-04 11:35
Airport Billy Bishop Toronto City Airport (CYTZ)

Arrival

Time 2026-05-04 12:33
Airport Newark Liberty International Airport (KEWR)
Time Latitude Longitude Altitude Speed Heading
2026-05-04 11:16 43.63107 -79.39503 254 ft 0 kts 344°
2026-05-04 11:28 43.63108 -79.39503 253 ft 0 kts 344°
2026-05-04 11:29 43.63099 -79.39500 253 ft 2 kts 344°
2026-05-04 11:29 43.63085 -79.39494 253 ft 2 kts 344°
2026-05-04 11:29 43.63071 -79.39491 253 ft 2 kts 14°
2026-05-04 11:29 43.63058 -79.39501 253 ft 2 kts 52°
2026-05-04 11:31 43.63054 -79.39513 253 ft 0 kts 72°
2026-05-04 11:33 43.63107 -79.39120 255 ft 15 kts 71°
2026-05-04 11:33 43.63137 -79.38980 254 ft 10 kts 93°
2026-05-04 11:33 43.63089 -79.38926 253 ft 7 kts 192°
2026-05-04 11:34 43.63082 -79.38969 254 ft 0 kts 249°
2026-05-04 11:35 43.63017 -79.39231 254 ft 75 kts 251°
2026-05-04 11:35 43.62771 -79.40249 293 ft 137 kts 251°
2026-05-04 11:35 43.62506 -79.41515 922 ft 139 kts 253°
2026-05-04 11:35 43.61944 -79.42537 1561 ft 147 kts 207°
2026-05-04 11:36 43.60896 -79.42400 2060 ft 172 kts 160°
2026-05-04 11:36 43.59872 -79.41409 2636 ft 189 kts 151°
2026-05-04 11:36 43.58777 -79.40227 3040 ft 212 kts 149°
2026-05-04 11:36 43.57574 -79.38885 3421 ft 234 kts 148°
2026-05-04 11:37 43.56259 -79.37392 3743 ft 254 kts 147°
2026-05-04 11:37 43.54862 -79.35784 4203 ft 264 kts 146°
2026-05-04 11:37 43.53490 -79.34161 4798 ft 268 kts 142°
2026-05-04 11:37 43.52500 -79.31959 5407 ft 280 kts 109°
2026-05-04 11:38 43.52271 -79.29306 6052 ft 282 kts 95°
2026-05-04 11:38 43.52170 -79.26595 6663 ft 284 kts 94°
2026-05-04 11:38 43.52085 -79.23844 7215 ft 289 kts 93°
2026-05-04 11:38 43.52012 -79.21107 7872 ft 289 kts 92°
2026-05-04 11:39 43.51943 -79.18344 8460 ft 292 kts 92°
2026-05-04 11:39 43.51876 -79.15529 9070 ft 294 kts 91°
2026-05-04 11:40 43.49597 -78.97747 11042 ft 346 kts 107°
2026-05-04 11:41 43.48901 -78.94593 11434 ft 346 kts 107°
2026-05-04 11:41 43.48208 -78.91441 11738 ft 348 kts 107°
2026-05-04 11:41 43.47502 -78.88219 12087 ft 352 kts 107°
2026-05-04 11:41 43.46797 -78.85001 12410 ft 354 kts 107°
2026-05-04 11:42 43.46094 -78.81791 12789 ft 354 kts 107°
2026-05-04 11:42 43.45379 -78.78526 13142 ft 356 kts 107°
2026-05-04 11:42 43.44670 -78.75291 13482 ft 357 kts 107°
2026-05-04 11:42 43.43947 -78.72021 13809 ft 359 kts 107°
2026-05-04 11:43 43.43212 -78.68740 14134 ft 361 kts 107°
2026-05-04 11:43 43.42470 -78.65436 14468 ft 363 kts 107°
2026-05-04 11:43 43.41726 -78.62127 14789 ft 364 kts 107°
2026-05-04 11:43 43.40969 -78.58762 15123 ft 365 kts 107°
2026-05-04 11:44 43.40222 -78.55444 15449 ft 367 kts 107°
2026-05-04 11:44 43.39465 -78.52085 15776 ft 368 kts 107°
2026-05-04 11:44 43.38708 -78.48732 16105 ft 370 kts 106°
2026-05-04 11:44 43.37945 -78.45358 16432 ft 371 kts 106°
2026-05-04 11:45 43.37180 -78.41975 16761 ft 372 kts 107°
2026-05-04 11:45 43.36409 -78.38577 17085 ft 373 kts 107°
2026-05-04 11:45 43.35638 -78.35182 17420 ft 374 kts 106°
2026-05-04 11:45 43.34864 -78.31778 17751 ft 375 kts 107°
2026-05-04 11:46 43.34089 -78.28374 18067 ft 375 kts 107°
2026-05-04 11:46 43.33302 -78.24923 18397 ft 376 kts 107°
2026-05-04 11:46 43.32525 -78.21524 18728 ft 377 kts 107°
2026-05-04 11:46 43.31735 -78.18072 19072 ft 378 kts 107°
2026-05-04 11:47 43.30944 -78.14621 19416 ft 379 kts 107°
2026-05-04 11:47 43.29971 -78.11292 19738 ft 381 kts 117°
2026-05-04 11:47 43.28669 -78.08110 20079 ft 382 kts 120°
2026-05-04 11:47 43.27350 -78.04968 20418 ft 383 kts 120°
2026-05-04 11:48 43.26010 -78.01781 20758 ft 384 kts 120°
2026-05-04 11:48 43.24676 -77.98606 21088 ft 386 kts 119°
2026-05-04 11:48 43.23352 -77.95451 21422 ft 387 kts 119°
2026-05-04 11:48 43.22006 -77.92240 21756 ft 388 kts 119°
2026-05-04 11:49 43.20663 -77.89041 22095 ft 390 kts 118°
2026-05-04 11:49 43.19316 -77.85829 22425 ft 391 kts 118°
2026-05-04 11:49 43.17951 -77.82577 22745 ft 393 kts 118°
2026-05-04 11:49 43.16584 -77.79322 22804 ft 401 kts 118°
2026-05-04 11:50 43.15184 -77.75994 22809 ft 409 kts 118°
2026-05-04 11:50 43.13744 -77.72572 22818 ft 414 kts 118°
2026-05-04 11:50 43.12300 -77.69145 22829 ft 418 kts 118°
2026-05-04 11:50 43.10863 -77.65736 22799 ft 405 kts 118°
2026-05-04 11:51 43.09499 -77.62490 22807 ft 384 kts 117°
2026-05-04 11:51 43.08186 -77.59378 22824 ft 382 kts 118°
2026-05-04 11:51 43.06845 -77.56207 22820 ft 384 kts 118°
2026-05-04 11:51 43.05506 -77.53046 22828 ft 386 kts 118°
2026-05-04 11:52 43.04162 -77.49876 22831 ft 387 kts 118°
2026-05-04 11:52 43.02812 -77.46694 22830 ft 389 kts 118°
2026-05-04 11:52 43.01463 -77.43520 22836 ft 390 kts 118°
2026-05-04 11:52 43.00095 -77.40302 22836 ft 391 kts 118°
2026-05-04 11:53 42.98728 -77.37091 22840 ft 391 kts 118°
2026-05-04 11:53 42.97832 -77.34988 22839 ft 392 kts 119°
2026-05-04 11:53 42.96003 -77.30701 22843 ft 392 kts 119°
2026-05-04 11:53 42.94614 -77.27451 22850 ft 393 kts 119°
2026-05-04 11:55 42.84919 -77.05062 22845 ft 387 kts 120°
2026-05-04 11:55 42.83529 -77.01912 22853 ft 386 kts 120°
2026-05-04 11:56 42.82152 -76.98795 22851 ft 386 kts 119°
2026-05-04 11:56 42.80757 -76.95636 22852 ft 385 kts 120°
2026-05-04 11:56 42.79381 -76.92524 22854 ft 385 kts 119°
2026-05-04 11:56 42.77999 -76.89401 22855 ft 385 kts 120°
2026-05-04 11:57 42.77086 -76.87341 22861 ft 385 kts 120°
2026-05-04 11:57 42.75231 -76.83157 22861 ft 384 kts 120°
2026-05-04 11:57 42.73855 -76.80058 22865 ft 384 kts 120°
2026-05-04 11:57 42.72924 -76.77962 22861 ft 384 kts 120°
2026-05-04 11:58 42.71087 -76.73831 22867 ft 384 kts 120°
2026-05-04 11:58 42.69697 -76.70710 22868 ft 384 kts 120°
2026-05-04 11:58 42.68309 -76.67596 22867 ft 385 kts 120°
2026-05-04 11:58 42.66935 -76.64517 22865 ft 385 kts 120°
2026-05-04 11:59 42.65540 -76.61394 22863 ft 385 kts 120°
2026-05-04 11:59 42.64151 -76.58286 22869 ft 385 kts 120°
2026-05-04 11:59 42.62758 -76.55174 22873 ft 385 kts 120°
2026-05-04 11:59 42.61369 -76.52079 22876 ft 385 kts 120°
2026-05-04 12:00 42.60429 -76.49993 22876 ft 386 kts 120°
2026-05-04 12:00 42.58552 -76.45839 22872 ft 386 kts 121°
2026-05-04 12:00 42.57152 -76.42736 22875 ft 386 kts 121°
2026-05-04 12:00 42.56220 -76.40669 22873 ft 386 kts 120°
2026-05-04 12:01 42.54355 -76.36536 22878 ft 387 kts 121°
2026-05-04 12:01 42.52963 -76.33454 22872 ft 387 kts 121°
2026-05-04 12:02 42.45035 -76.15927 22880 ft 386 kts 122°
2026-05-04 12:03 42.43153 -76.11779 22885 ft 386 kts 122°
2026-05-04 12:03 42.41770 -76.08736 22887 ft 386 kts 122°
2026-05-04 12:03 42.40344 -76.05599 22899 ft 385 kts 122°
2026-05-04 12:03 42.38929 -76.02491 22903 ft 385 kts 122°
2026-05-04 12:04 42.37535 -75.99430 22899 ft 386 kts 122°
2026-05-04 12:04 42.36111 -75.96310 22903 ft 385 kts 122°
2026-05-04 12:04 42.34703 -75.93225 22906 ft 385 kts 122°
2026-05-04 12:04 42.33304 -75.90163 22898 ft 385 kts 122°
2026-05-04 12:05 42.32355 -75.88090 22902 ft 385 kts 122°
2026-05-04 12:05 42.30479 -75.83992 22910 ft 385 kts 122°
2026-05-04 12:05 42.29530 -75.81923 22914 ft 385 kts 122°
2026-05-04 12:05 42.27657 -75.77841 22905 ft 385 kts 122°
2026-05-04 12:06 42.26241 -75.74760 22907 ft 386 kts 122°
2026-05-04 12:06 42.24818 -75.71664 22905 ft 386 kts 122°
2026-05-04 12:06 42.23416 -75.68619 22904 ft 386 kts 122°
2026-05-04 12:06 42.22001 -75.65548 22899 ft 386 kts 122°
2026-05-04 12:07 42.20584 -75.62477 22899 ft 386 kts 122°
2026-05-04 12:07 42.19163 -75.59400 22893 ft 386 kts 122°
2026-05-04 12:07 42.18217 -75.57352 22893 ft 386 kts 122°
2026-05-04 12:07 42.16344 -75.53303 22898 ft 386 kts 122°
2026-05-04 12:08 42.14928 -75.50247 22894 ft 385 kts 122°
2026-05-04 12:08 42.13983 -75.48206 22891 ft 385 kts 122°
2026-05-04 12:08 42.12563 -75.45146 22898 ft 385 kts 122°
2026-05-04 12:08 42.10674 -75.41079 22909 ft 384 kts 122°
2026-05-04 12:09 42.09257 -75.38034 22905 ft 384 kts 122°
2026-05-04 12:09 42.07825 -75.34958 22904 ft 384 kts 123°
2026-05-04 12:09 42.06422 -75.31919 22897 ft 384 kts 122°
2026-05-04 12:09 42.05165 -75.28764 22910 ft 383 kts 117°
2026-05-04 12:10 42.04356 -75.26602 22908 ft 383 kts 117°
2026-05-04 12:10 42.03164 -75.23413 22914 ft 382 kts 117°
2026-05-04 12:10 42.01571 -75.19161 22851 ft 385 kts 117°
2026-05-04 12:10 42.00763 -75.17007 22583 ft 389 kts 117°
2026-05-04 12:11 41.99152 -75.12716 21984 ft 386 kts 117°
2026-05-04 12:11 41.97935 -75.09481 21529 ft 385 kts 117°
2026-05-04 12:11 41.96732 -75.06290 21087 ft 384 kts 117°
2026-05-04 12:11 41.95536 -75.03126 20639 ft 383 kts 118°
2026-05-04 12:12 41.94731 -75.00996 20342 ft 383 kts 117°
2026-05-04 12:12 41.93514 -74.97783 19892 ft 382 kts 118°
2026-05-04 12:12 41.92314 -74.94622 19454 ft 381 kts 118°
2026-05-04 12:12 41.91110 -74.91475 19012 ft 380 kts 119°
2026-05-04 12:13 41.88869 -74.87935 18619 ft 366 kts 143°
2026-05-04 12:14 41.75775 -74.74130 15912 ft 355 kts 146°
2026-05-04 12:15 41.73820 -74.72096 15520 ft 355 kts 146°
2026-05-04 12:15 41.71875 -74.70074 15130 ft 355 kts 146°
2026-05-04 12:15 41.69917 -74.68043 14712 ft 353 kts 146°
2026-05-04 12:15 41.67332 -74.65363 14195 ft 351 kts 146°
2026-05-04 12:16 41.66057 -74.64041 13924 ft 350 kts 146°
2026-05-04 12:16 41.64129 -74.62045 13522 ft 347 kts 146°
2026-05-04 12:16 41.62214 -74.60063 13135 ft 345 kts 146°
2026-05-04 12:16 41.60339 -74.58127 12750 ft 343 kts 146°
2026-05-04 12:17 41.58434 -74.56160 12362 ft 341 kts 146°
2026-05-04 12:17 41.56564 -74.54232 11972 ft 339 kts 146°
2026-05-04 12:17 41.54615 -74.52562 11584 ft 332 kts 157°
2026-05-04 12:17 41.51870 -74.50820 11079 ft 322 kts 160°
2026-05-04 12:18 41.50526 -74.49983 10819 ft 317 kts 160°
2026-05-04 12:18 41.47880 -74.48340 10301 ft 309 kts 160°
2026-05-04 12:18 41.45945 -74.47140 9921 ft 304 kts 160°
2026-05-04 12:18 41.44669 -74.46348 9669 ft 302 kts 160°
2026-05-04 12:19 41.42763 -74.45164 9285 ft 298 kts 160°
2026-05-04 12:19 41.40895 -74.44004 8900 ft 294 kts 160°
2026-05-04 12:19 41.39056 -74.42861 8519 ft 291 kts 160°
2026-05-04 12:19 41.36656 -74.41359 7990 ft 276 kts 160°
2026-05-04 12:20 41.35517 -74.40647 7746 ft 269 kts 160°
2026-05-04 12:20 41.33843 -74.39603 7465 ft 259 kts 160°
2026-05-04 12:20 41.32244 -74.38610 7208 ft 255 kts 161°
2026-05-04 12:20 41.30626 -74.37610 6952 ft 252 kts 161°
2026-05-04 12:21 41.29035 -74.36626 6689 ft 250 kts 161°
2026-05-04 12:21 41.27484 -74.35666 6438 ft 248 kts 161°
2026-05-04 12:21 41.25896 -74.34688 6183 ft 251 kts 161°
2026-05-04 12:21 41.23783 -74.33383 5988 ft 248 kts 161°
2026-05-04 12:22 41.22745 -74.32742 5964 ft 247 kts 161°
2026-05-04 12:22 41.21196 -74.31786 5951 ft 245 kts 161°
2026-05-04 12:22 41.19640 -74.30827 5946 ft 246 kts 161°
2026-05-04 12:22 41.18076 -74.29866 5947 ft 248 kts 161°
2026-05-04 12:23 41.16521 -74.28910 5946 ft 250 kts 161°
2026-05-04 12:23 41.14930 -74.27930 5954 ft 251 kts 161°
2026-05-04 12:23 41.13341 -74.26950 5960 ft 253 kts 161°
2026-05-04 12:23 41.11740 -74.25964 5964 ft 254 kts 161°
2026-05-04 12:24 41.10124 -74.24969 5963 ft 255 kts 161°
2026-05-04 12:24 41.08520 -74.23980 5964 ft 256 kts 161°
2026-05-04 12:24 41.06899 -74.22981 5963 ft 256 kts 161°
2026-05-04 12:24 41.05274 -74.21980 5954 ft 255 kts 161°
2026-05-04 12:25 41.03662 -74.20988 5960 ft 256 kts 161°
2026-05-04 12:25 41.02025 -74.19981 5956 ft 255 kts 161°
2026-05-04 12:25 41.00423 -74.18996 5961 ft 254 kts 161°
2026-05-04 12:25 40.98821 -74.18011 5964 ft 254 kts 161°
2026-05-04 12:26 40.97207 -74.17020 5968 ft 254 kts 161°
2026-05-04 12:26 40.95611 -74.16040 5969 ft 253 kts 161°
2026-05-04 12:26 40.94020 -74.15063 5966 ft 254 kts 161°
2026-05-04 12:26 40.92417 -74.13965 5744 ft 260 kts 156°
2026-05-04 12:27 40.90845 -74.12767 5377 ft 259 kts 155°
2026-05-04 12:27 40.89332 -74.11603 4976 ft 254 kts 156°
2026-05-04 12:27 40.87819 -74.10445 4559 ft 247 kts 156°
2026-05-04 12:27 40.86351 -74.09332 4157 ft 243 kts 156°
2026-05-04 12:28 40.84896 -74.08231 3752 ft 240 kts 156°
2026-05-04 12:28 40.83422 -74.07349 3372 ft 222 kts 174°
2026-05-04 12:28 40.81945 -74.07180 3089 ft 205 kts 184°
2026-05-04 12:28 40.80563 -74.07121 2817 ft 193 kts 184°
2026-05-04 12:29 40.79248 -74.07071 2580 ft 181 kts 185°
2026-05-04 12:29 40.78036 -74.07027 2336 ft 169 kts 185°
2026-05-04 12:29 40.76897 -74.06988 2113 ft 157 kts 186°
2026-05-04 12:29 40.75841 -74.07051 1929 ft 148 kts 199°
2026-05-04 12:30 40.74920 -74.07557 1735 ft 140 kts 211°
2026-05-04 12:30 40.74082 -74.08131 1558 ft 133 kts 211°
2026-05-04 12:30 40.73263 -74.08697 1380 ft 130 kts 212°
2026-05-04 12:30 40.72477 -74.09238 1210 ft 128 kts 212°
2026-05-04 12:31 40.71690 -74.09780 1026 ft 127 kts 212°
2026-05-04 12:31 40.70952 -74.10386 889 ft 123 kts 227°
2026-05-04 12:31 40.70479 -74.11324 747 ft 128 kts 244°
2026-05-04 12:31 40.70154 -74.12328 649 ft 129 kts 247°
2026-05-04 12:32 40.70000 -74.13908 381 ft 135 kts 272°
2026-05-04 12:32 40.70143 -74.15980 42 ft 134 kts 272°
2026-05-04 12:32 40.70208 -74.16968 26 ft 64 kts 275°
2026-05-04 12:33 40.70225 -74.17314 26 ft 17 kts 246°
2026-05-04 12:33 40.70136 -74.17360 26 ft 12 kts 185°
2026-05-04 12:33 40.70061 -74.17368 26 ft 9 kts 184°
2026-05-04 12:33 40.70002 -74.17375 26 ft 7 kts 186°
2026-05-04 12:34 40.69951 -74.17382 26 ft 8 kts 186°
2026-05-04 12:34 40.69881 -74.17387 26 ft 11 kts 166°
2026-05-04 12:34 40.69813 -74.17297 26 ft 16 kts 132°
2026-05-04 12:34 40.69721 -74.17188 26 ft 19 kts 144°
2026-05-04 12:35 40.69601 -74.17108 26 ft 17 kts 161°
2026-05-04 12:35 40.69493 -74.17075 26 ft 14 kts 173°
2026-05-04 12:35 40.69405 -74.17069 26 ft 12 kts 183°
2026-05-04 12:35 40.69315 -74.17097 26 ft 14 kts 201°
2026-05-04 12:36 40.69223 -74.17155 26 ft 13 kts 206°
2026-05-04 12:36 40.69149 -74.17201 26 ft 10 kts 206°
2026-05-04 12:36 40.69063 -74.17256 26 ft 17 kts 206°
2026-05-04 12:36 40.68966 -74.17317 26 ft 13 kts 206°
2026-05-04 12:37 40.68894 -74.17364 26 ft 10 kts 207°
2026-05-04 12:37 40.68827 -74.17413 26 ft 11 kts 242°
2026-05-04 12:37 40.68853 -74.17521 26 ft 14 kts 296°
2026-05-04 12:37 40.68897 -74.17638 26 ft 12 kts 298°
2026-05-04 12:38 40.68933 -74.17615 26 ft 6 kts 65°
2026-05-04 12:38 40.68940 -74.17594 26 ft 0 kts 65°